PAY1985 KMIA-KMEM

Flight info

Callsign PAY1985
Flight time N/A
Altitude 34000
Route HURCN4 SMELZ Q116 GOOGY WASER VANZE3
Aircraft B752/M-SDE2E3FGHIJ3J4J7RWXY/LB1

Departure

Time N/A
Airport Miami International Airport (KMIA)

Arrival

Time 2026-05-03 20:58
Airport Memphis International Airport (KMEM)
Time Latitude Longitude Altitude Speed Heading
2026-05-03 20:15 33.28237 -86.54147 34131 ft 438 kts 314°
2026-05-03 20:15 33.33051 -86.58567 34133 ft 438 kts 314°
2026-05-03 20:16 33.37846 -86.62978 34133 ft 438 kts 314°
2026-05-03 20:16 33.42412 -86.67184 34150 ft 438 kts 314°
2026-05-03 20:17 33.47301 -86.71695 34150 ft 437 kts 314°
2026-05-03 20:17 33.52094 -86.76122 34153 ft 437 kts 314°
2026-05-03 20:18 33.56875 -86.80544 34155 ft 437 kts 314°
2026-05-03 20:18 33.61716 -86.85029 34155 ft 438 kts 314°
2026-05-03 20:19 33.66238 -86.89736 34163 ft 426 kts 303°
2026-05-03 20:19 33.69391 -86.95556 34156 ft 419 kts 294°
2026-05-03 20:20 33.72263 -87.01641 34149 ft 418 kts 293°
2026-05-03 20:20 33.75067 -87.07718 34144 ft 418 kts 293°
2026-05-03 20:21 33.77861 -87.13841 34139 ft 419 kts 293°
2026-05-03 20:21 33.80656 -87.20001 34137 ft 419 kts 293°
2026-05-03 20:22 33.83425 -87.26125 34136 ft 420 kts 293°
2026-05-03 20:22 33.86201 -87.32279 34136 ft 421 kts 293°
2026-05-03 20:23 33.88992 -87.38479 34135 ft 421 kts 293°
2026-05-03 20:23 33.91779 -87.44681 34134 ft 422 kts 293°
2026-05-03 20:24 33.94550 -87.50860 34134 ft 423 kts 293°
2026-05-03 20:24 33.97344 -87.57102 34108 ft 424 kts 293°
2026-05-03 20:25 34.00108 -87.63284 34078 ft 419 kts 294°
2026-05-03 20:25 34.02563 -87.68787 34090 ft 419 kts 294°
2026-05-03 20:26 34.06355 -87.75945 34093 ft 422 kts 297°
2026-05-03 20:26 34.09509 -87.81821 34095 ft 422 kts 297°
2026-05-03 20:27 34.12504 -87.87425 33866 ft 428 kts 297°
2026-05-03 20:27 34.14137 -87.90488 33458 ft 430 kts 297°
2026-05-03 20:27 34.15764 -87.93526 33055 ft 427 kts 297°
2026-05-03 20:27 34.17364 -87.96518 32659 ft 424 kts 297°
2026-05-03 20:28 34.18949 -87.99499 32233 ft 425 kts 298°
2026-05-03 20:28 34.20539 -88.02490 31750 ft 428 kts 297°
2026-05-03 20:28 34.22075 -88.05531 31271 ft 432 kts 296°
2026-05-03 20:28 34.23619 -88.08637 30787 ft 435 kts 297°
2026-05-03 20:29 34.25159 -88.11726 30297 ft 430 kts 297°
2026-05-03 20:29 34.26670 -88.14760 29818 ft 423 kts 297°
2026-05-03 20:29 34.28170 -88.17776 29353 ft 418 kts 297°
2026-05-03 20:29 34.29650 -88.20753 28889 ft 413 kts 298°
2026-05-03 20:30 34.31099 -88.23672 28422 ft 407 kts 298°
2026-05-03 20:30 34.32515 -88.26525 27966 ft 399 kts 298°
2026-05-03 20:30 34.33937 -88.29394 27504 ft 397 kts 298°
2026-05-03 20:30 34.35341 -88.32230 27056 ft 400 kts 298°
2026-05-03 20:31 34.36762 -88.35104 26611 ft 402 kts 298°
2026-05-03 20:31 34.38197 -88.38004 26171 ft 401 kts 298°
2026-05-03 20:31 34.39626 -88.40894 25728 ft 397 kts 299°
2026-05-03 20:31 34.41038 -88.43752 25285 ft 393 kts 299°
2026-05-03 20:32 34.42435 -88.46585 24829 ft 389 kts 299°
2026-05-03 20:32 34.43805 -88.49364 24378 ft 387 kts 299°
2026-05-03 20:32 34.45185 -88.52165 23924 ft 386 kts 299°
2026-05-03 20:32 34.46554 -88.54945 23475 ft 384 kts 299°
2026-05-03 20:33 34.47908 -88.57695 23032 ft 382 kts 299°
2026-05-03 20:33 34.49261 -88.60446 22615 ft 378 kts 300°
2026-05-03 20:33 34.50586 -88.63145 22250 ft 374 kts 300°
2026-05-03 20:33 34.51837 -88.65693 21931 ft 372 kts 299°
2026-05-03 20:34 34.53090 -88.68248 21625 ft 371 kts 299°
2026-05-03 20:34 34.54375 -88.70871 21361 ft 370 kts 299°
2026-05-03 20:34 34.55731 -88.73641 21088 ft 369 kts 299°
2026-05-03 20:34 34.57034 -88.76305 20826 ft 368 kts 299°
2026-05-03 20:35 34.58353 -88.79002 20561 ft 367 kts 299°
2026-05-03 20:35 34.59653 -88.81662 20308 ft 366 kts 299°
2026-05-03 20:35 34.60945 -88.84310 20056 ft 364 kts 300°
2026-05-03 20:35 34.62225 -88.86932 19804 ft 363 kts 300°
2026-05-03 20:36 34.63435 -88.89608 19550 ft 361 kts 291°
2026-05-03 20:36 34.64173 -88.92475 19321 ft 359 kts 285°
2026-05-03 20:36 34.64821 -88.95366 19072 ft 359 kts 285°
2026-05-03 20:36 34.65472 -88.98274 18816 ft 355 kts 285°
2026-05-03 20:37 34.66096 -89.01091 18557 ft 346 kts 285°
2026-05-03 20:37 34.66714 -89.03897 18292 ft 338 kts 285°
2026-05-03 20:37 34.67303 -89.06585 18042 ft 336 kts 285°
2026-05-03 20:37 34.67909 -89.09319 17793 ft 339 kts 286°
2026-05-03 20:38 34.68554 -89.12085 17542 ft 340 kts 286°
2026-05-03 20:38 34.69190 -89.14823 17289 ft 339 kts 286°
2026-05-03 20:38 34.69827 -89.17571 17032 ft 336 kts 286°
2026-05-03 20:38 34.70450 -89.20264 16779 ft 334 kts 286°
2026-05-03 20:39 34.71077 -89.22977 16524 ft 333 kts 287°
2026-05-03 20:39 34.71699 -89.25669 16270 ft 332 kts 287°
2026-05-03 20:39 34.72303 -89.28352 16016 ft 332 kts 286°
2026-05-03 20:39 34.72901 -89.31044 15761 ft 331 kts 286°
2026-05-03 20:40 34.73494 -89.33704 15508 ft 330 kts 286°
2026-05-03 20:40 34.74085 -89.36364 15254 ft 328 kts 286°
2026-05-03 20:40 34.74681 -89.39050 14997 ft 327 kts 286°
2026-05-03 20:40 34.75271 -89.41709 14742 ft 327 kts 286°
2026-05-03 20:41 34.75858 -89.44357 14488 ft 326 kts 286°
2026-05-03 20:41 34.76448 -89.47032 14230 ft 325 kts 286°
2026-05-03 20:41 34.77120 -89.49590 13975 ft 323 kts 296°
2026-05-03 20:41 34.78228 -89.51932 13742 ft 322 kts 302°
2026-05-03 20:42 34.79366 -89.54206 13495 ft 322 kts 302°
2026-05-03 20:42 34.80529 -89.56529 13241 ft 321 kts 302°
2026-05-03 20:42 34.81683 -89.58822 12988 ft 320 kts 302°
2026-05-03 20:42 34.82824 -89.61086 12665 ft 319 kts 302°
2026-05-03 20:43 34.83962 -89.63347 12182 ft 313 kts 302°
2026-05-03 20:43 34.85050 -89.65507 11722 ft 299 kts 302°
2026-05-03 20:43 34.86066 -89.67522 11285 ft 287 kts 302°
2026-05-03 20:43 34.87056 -89.69490 10846 ft 278 kts 302°
2026-05-03 20:44 34.88074 -89.71516 10447 ft 278 kts 302°
2026-05-03 20:44 34.89088 -89.73527 10001 ft 280 kts 302°
2026-05-03 20:44 34.90102 -89.75545 9558 ft 282 kts 302°
2026-05-03 20:44 34.91103 -89.77535 9123 ft 283 kts 302°
2026-05-03 20:45 34.92128 -89.79574 8656 ft 283 kts 301°
2026-05-03 20:45 34.93118 -89.81544 8176 ft 273 kts 301°
2026-05-03 20:45 34.94092 -89.83466 7722 ft 263 kts 303°
2026-05-03 20:45 34.95298 -89.84953 7318 ft 257 kts 329°
2026-05-03 20:46 34.96987 -89.85585 7000 ft 262 kts 352°
2026-05-03 20:46 34.98805 -89.85735 6580 ft 267 kts 354°
2026-05-03 20:46 35.00655 -89.85856 6150 ft 270 kts 355°
2026-05-03 20:46 35.02493 -89.85935 5731 ft 274 kts 356°
2026-05-03 20:47 35.04394 -89.85998 5309 ft 276 kts 356°
2026-05-03 20:47 35.06309 -89.86052 4878 ft 279 kts 356°
2026-05-03 20:47 35.08257 -89.86098 4447 ft 281 kts 357°
2026-05-03 20:47 35.10141 -89.86139 3956 ft 274 kts 357°
2026-05-03 20:48 35.11918 -89.86179 3534 ft 265 kts 357°
2026-05-03 20:48 35.13540 -89.86214 3156 ft 259 kts 357°
2026-05-03 20:48 35.15389 -89.86253 3043 ft 242 kts 357°
2026-05-03 20:48 35.17024 -89.86285 3032 ft 229 kts 357°
2026-05-03 20:49 35.18570 -89.86319 2997 ft 216 kts 356°
2026-05-03 20:49 35.20049 -89.86351 2988 ft 209 kts 357°
2026-05-03 20:49 35.21515 -89.86384 3009 ft 215 kts 356°
2026-05-03 20:49 35.23009 -89.86417 3010 ft 218 kts 357°
2026-05-03 20:50 35.24501 -89.86448 3029 ft 212 kts 357°
2026-05-03 20:50 35.25971 -89.86479 2989 ft 208 kts 357°
2026-05-03 20:50 35.27407 -89.86508 3000 ft 207 kts 356°
2026-05-03 20:50 35.28870 -89.86539 3003 ft 210 kts 356°
2026-05-03 20:51 35.30276 -89.86816 2977 ft 206 kts 331°
2026-05-03 20:51 35.31271 -89.87961 3007 ft 198 kts 294°
2026-05-03 20:51 35.31464 -89.89565 3006 ft 192 kts 256°
2026-05-03 20:51 35.30838 -89.90962 3010 ft 191 kts 230°
2026-05-03 20:52 35.29980 -89.92238 2996 ft 192 kts 231°
2026-05-03 20:52 35.29150 -89.93499 2994 ft 190 kts 231°
2026-05-03 20:52 35.28310 -89.94751 2999 ft 190 kts 230°
2026-05-03 20:52 35.27470 -89.95998 3001 ft 191 kts 230°
2026-05-03 20:53 35.26629 -89.97218 2991 ft 191 kts 227°
2026-05-03 20:53 35.25445 -89.97899 3025 ft 191 kts 182°
2026-05-03 20:53 35.24109 -89.97803 3022 ft 199 kts 178°
2026-05-03 20:53 35.22732 -89.97731 2993 ft 195 kts 180°
2026-05-03 20:54 35.21824 -89.97694 2992 ft 192 kts 180°
2026-05-03 20:54 35.18816 -89.97595 3018 ft 175 kts 181°
2026-05-03 20:54 35.17599 -89.97562 2789 ft 173 kts 181°
2026-05-03 20:55 35.16434 -89.97534 2545 ft 162 kts 181°
2026-05-03 20:55 35.15369 -89.97508 2301 ft 148 kts 181°
2026-05-03 20:55 35.14360 -89.97490 2110 ft 146 kts 181°
2026-05-03 20:55 35.13340 -89.97466 1946 ft 152 kts 181°
2026-05-03 20:56 35.12293 -89.97446 1745 ft 152 kts 181°
2026-05-03 20:56 35.11280 -89.97424 1539 ft 148 kts 181°
2026-05-03 20:56 35.10268 -89.97403 1342 ft 146 kts 181°
2026-05-03 20:56 35.09270 -89.97383 1157 ft 147 kts 181°
2026-05-03 20:57 35.08277 -89.97362 966 ft 147 kts 181°
2026-05-03 20:57 35.07283 -89.97342 777 ft 146 kts 181°
2026-05-03 20:57 35.06308 -89.97321 591 ft 146 kts 181°
2026-05-03 20:57 35.05378 -89.97303 412 ft 142 kts 180°
2026-05-03 20:58 35.04436 -89.97285 292 ft 130 kts 182°
2026-05-03 20:58 35.03881 -89.97269 302 ft 12 kts 177°
2026-05-03 20:58 35.03817 -89.97236 303 ft 9 kts 124°
2026-05-03 20:59 35.03807 -89.97162 300 ft 9 kts 88°
2026-05-03 20:59 35.03842 -89.97098 298 ft 9 kts 20°
2026-05-03 20:59 35.03904 -89.97092 297 ft 8 kts 360°
2026-05-03 20:59 35.03979 -89.97093 295 ft 14 kts 360°
2026-05-03 21:00 35.04108 -89.97097 293 ft 21 kts 359°
2026-05-03 21:00 35.04205 -89.97101 291 ft 21 kts 358°
2026-05-03 21:00 35.04319 -89.97096 289 ft 7 kts 11°
2026-05-03 21:00 35.04375 -89.97079 287 ft 10 kts 14°
2026-05-03 21:01 35.04461 -89.97062 286 ft 14 kts
2026-05-03 21:01 35.04577 -89.97062 284 ft 18 kts 359°
2026-05-03 21:01 35.04708 -89.97064 282 ft 19 kts 359°
2026-05-03 21:01 35.04838 -89.97068 280 ft 18 kts 359°
2026-05-03 21:02 35.04963 -89.97068 279 ft 17 kts
2026-05-03 21:02 35.05082 -89.97055 278 ft 16 kts
2026-05-03 21:02 35.05193 -89.97034 276 ft 16 kts
2026-05-03 21:02 35.05301 -89.97013 275 ft 15 kts
2026-05-03 21:03 35.05402 -89.96993 273 ft 14 kts
2026-05-03 21:03 35.05501 -89.96974 272 ft 14 kts
2026-05-03 21:03 35.05597 -89.96955 271 ft 12 kts
2026-05-03 21:03 35.05644 -89.96988 271 ft 11 kts 296°
2026-05-03 21:04 35.05656 -89.97110 270 ft 17 kts 278°
2026-05-03 21:04 35.05737 -89.97184 269 ft 13 kts 352°
2026-05-03 21:04 35.05825 -89.97186 268 ft 12 kts
2026-05-03 21:04 35.05886 -89.97188 267 ft 7 kts 352°
2026-05-03 21:05 35.05954 -89.97195 267 ft 6 kts
2026-05-03 21:05 35.05997 -89.97193 266 ft 6 kts
2026-05-03 21:05 35.06023 -89.97192 266 ft 0 kts